TDA931 RJFF-RJSS

Flight info

Callsign TDA931
Flight time N/A
Altitude 33000
Route BUTUR Y453 MARCO Y45 KMC Y515 LANCE
Aircraft MD82/M-SDE3FGHIRWXY/S

Departure

Time 2026-04-27 00:36
Airport Fukuoka Airport (RJFF)

Arrival

Time N/A
Airport Sendai Airport (RJSS)
Time Latitude Longitude Altitude Speed Heading
2026-04-27 00:20 33.60008 130.44508 27 ft 0 kts 60°
2026-04-27 00:20 33.60011 130.44514 27 ft 0 kts 60°
2026-04-27 00:30 33.59999 130.44489 30 ft 4 kts 60°
2026-04-27 00:30 33.59990 130.44464 30 ft 4 kts 87°
2026-04-27 00:30 33.59996 130.44440 28 ft 4 kts 133°
2026-04-27 00:30 33.60017 130.44421 28 ft 4 kts 149°
2026-04-27 00:31 33.60030 130.44412 28 ft 0 kts 150°
2026-04-27 00:33 33.60018 130.44421 28 ft 6 kts 147°
2026-04-27 00:33 33.59964 130.44457 28 ft 12 kts 151°
2026-04-27 00:34 33.59899 130.44463 27 ft 9 kts 225°
2026-04-27 00:34 33.59848 130.44379 25 ft 16 kts 212°
2026-04-27 00:34 33.59724 130.44329 24 ft 21 kts 192°
2026-04-27 00:34 33.59631 130.44358 26 ft 5 kts 151°
2026-04-27 00:35 33.59597 130.44380 27 ft 0 kts 151°
2026-04-27 00:35 33.59576 130.44394 26 ft 14 kts 151°
2026-04-27 00:36 33.59336 130.44559 26 ft 72 kts 150°
2026-04-27 00:36 33.58710 130.44989 32 ft 132 kts 150°
2026-04-27 00:36 33.57768 130.45635 98 ft 175 kts 150°
2026-04-27 00:36 33.56695 130.46389 741 ft 177 kts 150°
2026-04-27 00:37 33.55648 130.47148 1478 ft 182 kts 151°
2026-04-27 00:37 33.54586 130.47877 1960 ft 189 kts 156°
2026-04-27 00:37 33.53533 130.48511 3153 ft 166 kts 158°
2026-04-27 00:37 33.52305 130.49206 2503 ft 234 kts 156°
2026-04-27 00:38 33.50573 130.50199 1696 ft 295 kts 155°
2026-04-27 00:38 33.48889 130.51220 3280 ft 256 kts 155°
2026-04-27 00:38 33.47296 130.52191 4032 ft 258 kts 154°
2026-04-27 00:38 33.45673 130.53178 4608 ft 267 kts 154°
2026-04-27 00:39 33.44004 130.54209 5142 ft 273 kts 153°
2026-04-27 00:39 33.42290 130.55273 5627 ft 281 kts 153°
2026-04-27 00:39 33.40536 130.56365 6193 ft 286 kts 153°
2026-04-27 00:39 33.38782 130.57458 6754 ft 289 kts 153°
2026-04-27 00:40 33.36988 130.58577 7368 ft 292 kts 153°
2026-04-27 00:40 33.35178 130.59705 7977 ft 295 kts 153°
2026-04-27 00:40 33.33352 130.60842 8582 ft 298 kts 154°
2026-04-27 00:40 33.31510 130.62024 9161 ft 303 kts 147°
2026-04-27 00:41 33.30019 130.63817 9763 ft 308 kts 119°
2026-04-27 00:41 33.29316 130.66232 10160 ft 315 kts 93°
2026-04-27 00:41 33.29522 130.68876 10286 ft 328 kts 68°
2026-04-27 00:41 33.30628 130.71287 10462 ft 337 kts 45°
2026-04-27 00:42 33.32277 130.73304 10672 ft 351 kts 47°
2026-04-27 00:42 33.33657 130.75792 10995 ft 364 kts 57°
2026-04-27 00:42 33.34892 130.78453 11513 ft 367 kts 58°
2026-04-27 00:42 33.36172 130.81114 12054 ft 370 kts 56°
2026-04-27 00:43 33.37517 130.83759 12559 ft 373 kts 54°
2026-04-27 00:43 33.38907 130.86399 13066 ft 377 kts 53°
2026-04-27 00:43 33.40333 130.89044 13579 ft 380 kts 53°
2026-04-27 00:43 33.41790 130.91702 14011 ft 384 kts 52°
2026-04-27 00:44 33.43251 130.94348 14443 ft 387 kts 52°
2026-04-27 00:44 33.44749 130.97050 14832 ft 393 kts 52°
2026-04-27 00:44 33.46271 130.99789 15292 ft 396 kts 52°
2026-04-27 00:44 33.47780 131.02569 15717 ft 400 kts 53°
2026-04-27 00:45 33.49294 131.05380 16032 ft 404 kts 53°
2026-04-27 00:45 33.50824 131.08217 16574 ft 403 kts 52°
2026-04-27 00:45 33.52381 131.11033 16945 ft 409 kts 51°
2026-04-27 00:45 33.53978 131.13886 17342 ft 414 kts 52°
2026-04-27 00:46 33.55568 131.16772 17854 ft 416 kts 53°
2026-04-27 00:46 33.57146 131.19694 18275 ft 420 kts 53°
2026-04-27 00:46 33.58731 131.22654 18617 ft 423 kts 53°
2026-04-27 00:46 33.60330 131.25642 18962 ft 427 kts 53°
2026-04-27 00:47 33.61943 131.28648 19345 ft 430 kts 52°
2026-04-27 00:47 33.63570 131.31671 19698 ft 433 kts 52°
2026-04-27 00:47 33.65195 131.34683 20074 ft 436 kts 52°
2026-04-27 00:47 33.66854 131.37750 20443 ft 439 kts 52°
2026-04-27 00:48 33.68521 131.40835 20812 ft 442 kts 52°
2026-04-27 00:48 33.70204 131.43951 21163 ft 446 kts 52°
2026-04-27 00:48 33.71898 131.47088 21508 ft 450 kts 52°
2026-04-27 00:48 33.73608 131.50259 21869 ft 453 kts 52°
2026-04-27 00:49 33.75326 131.53449 22230 ft 456 kts 52°
2026-04-27 00:49 33.77056 131.56662 22585 ft 459 kts 52°
2026-04-27 00:49 33.78206 131.58804 22786 ft 462 kts 52°
2026-04-27 00:49 33.80540 131.63174 23197 ft 467 kts 52°
2026-04-27 00:50 33.81705 131.65361 23444 ft 469 kts 52°
2026-04-27 00:50 33.85239 131.72002 24076 ft 473 kts 52°
2026-04-27 00:50 33.87015 131.75340 24413 ft 474 kts 52°
2026-04-27 00:51 33.88802 131.78690 24734 ft 477 kts 52°
2026-04-27 00:51 33.90603 131.82059 24989 ft 480 kts 52°
2026-04-27 00:51 33.92411 131.85449 25294 ft 482 kts 51°
2026-04-27 00:51 33.94220 131.88845 25633 ft 483 kts 51°
2026-04-27 00:52 33.96039 131.92262 25935 ft 485 kts 51°
2026-04-27 00:52 33.97865 131.95692 26216 ft 488 kts 51°
2026-04-27 00:52 33.99677 131.99096 26544 ft 489 kts 51°
2026-04-27 00:52 34.01512 132.02555 26835 ft 491 kts 51°
2026-04-27 00:53 34.03352 132.06037 27118 ft 493 kts 51°
2026-04-27 00:53 34.05199 132.09531 27388 ft 495 kts 51°
2026-04-27 00:53 34.07113 132.12984 27685 ft 492 kts 43°
2026-04-27 00:53 34.09522 132.15813 27963 ft 475 kts 26°
2026-04-27 00:54 34.12306 132.17866 28343 ft 465 kts 20°
2026-04-27 00:54 34.15149 132.19661 28810 ft 460 kts 18°
2026-04-27 00:54 34.18006 132.21410 29095 ft 461 kts 18°
2026-04-27 00:54 34.20858 132.23154 29502 ft 459 kts 18°
2026-04-27 00:55 34.23698 132.24914 29945 ft 457 kts 18°
2026-04-27 00:55 34.26520 132.26691 30292 ft 457 kts 19°
2026-04-27 00:55 34.29342 132.28489 30501 ft 460 kts 20°
2026-04-27 00:55 34.32172 132.30325 30773 ft 460 kts 20°
2026-04-27 00:56 34.34948 132.32146 31086 ft 460 kts 20°
2026-04-27 00:56 34.37754 132.33991 31384 ft 459 kts 20°
2026-04-27 00:56 34.40561 132.35832 31699 ft 458 kts 20°
2026-04-27 00:56 34.43368 132.37661 31935 ft 458 kts 20°
2026-04-27 00:57 34.46185 132.39479 32223 ft 458 kts 20°
2026-04-27 00:57 34.48995 132.41309 32466 ft 458 kts 20°
2026-04-27 00:57 34.51800 132.43138 32707 ft 458 kts 20°
2026-04-27 00:57 34.54616 132.44968 32820 ft 460 kts 20°
2026-04-27 00:58 34.57453 132.46805 32916 ft 463 kts 21°
2026-04-27 00:58 34.63121 132.50486 32923 ft 459 kts 21°
2026-04-27 00:59 34.68729 132.54161 32938 ft 458 kts 21°
2026-04-27 00:59 34.74356 132.57831 32936 ft 460 kts 21°
2026-04-27 01:00 34.80006 132.61516 32915 ft 461 kts 21°
2026-04-27 01:00 34.85612 132.65185 32954 ft 460 kts 21°
2026-04-27 01:01 34.91207 132.68867 32941 ft 462 kts 21°
2026-04-27 01:01 34.96875 132.72588 32933 ft 463 kts 21°
2026-04-27 01:02 35.02553 132.76312 32946 ft 464 kts 22°
2026-04-27 01:02 35.08221 132.80068 32935 ft 463 kts 22°
2026-04-27 01:03 35.13878 132.83814 32933 ft 461 kts 22°
2026-04-27 01:03 35.19536 132.87529 32940 ft 463 kts 22°
2026-04-27 01:04 35.25225 132.91231 32952 ft 463 kts 22°
2026-04-27 01:04 35.30922 132.94918 32944 ft 462 kts 22°
2026-04-27 01:05 35.36578 132.98590 32944 ft 463 kts 22°
2026-04-27 01:05 35.42282 133.02309 32936 ft 464 kts 22°
2026-04-27 01:06 35.48004 133.06030 32942 ft 468 kts 23°
2026-04-27 01:06 35.50829 133.08051 32943 ft 473 kts 34°
2026-04-27 01:06 35.53200 133.10881 32947 ft 481 kts 51°
2026-04-27 01:06 35.54870 133.14459 32941 ft 485 kts 68°
2026-04-27 01:07 35.55962 133.18390 32965 ft 487 kts 73°
2026-04-27 01:07 35.57866 133.26358 32929 ft 484 kts 73°
2026-04-27 01:08 35.59867 133.34174 32937 ft 482 kts 72°
2026-04-27 01:08 35.62020 133.41988 32939 ft 483 kts 71°
2026-04-27 01:09 35.64223 133.49801 32932 ft 483 kts 71°
2026-04-27 01:09 35.66388 133.57617 32934 ft 482 kts 72°
2026-04-27 01:10 35.68531 133.65440 32933 ft 481 kts 72°
2026-04-27 01:10 35.70641 133.73248 32940 ft 480 kts 73°
2026-04-27 01:11 35.72721 133.80992 32940 ft 479 kts 73°
2026-04-27 01:11 35.74826 133.88793 32935 ft 481 kts 72°
2026-04-27 01:12 35.76944 133.96609 32932 ft 480 kts 73°
2026-04-27 01:12 35.79053 134.04395 32934 ft 477 kts 73°
2026-04-27 01:13 35.81137 134.12133 32935 ft 476 kts 73°
2026-04-27 01:13 35.83193 134.19911 32932 ft 478 kts 74°
2026-04-27 01:14 35.85221 134.27669 32937 ft 479 kts 73°
2026-04-27 01:14 35.87302 134.35479 32921 ft 480 kts 73°
2026-04-27 01:15 35.89395 134.43266 32943 ft 477 kts 73°
2026-04-27 01:15 35.91482 134.51032 32939 ft 475 kts 73°
2026-04-27 01:16 35.93522 134.58786 32953 ft 477 kts 74°
2026-04-27 01:16 35.95548 134.66591 32932 ft 476 kts 74°
2026-04-27 01:17 35.97579 134.74362 32936 ft 475 kts 74°
2026-04-27 01:17 35.99613 134.82127 32920 ft 476 kts 74°
2026-04-27 01:18 36.01615 134.89836 32935 ft 477 kts 74°
2026-04-27 01:18 36.03638 134.97650 32940 ft 478 kts 74°
2026-04-27 01:19 36.05661 135.05465 32928 ft 477 kts 74°
2026-04-27 01:19 36.07676 135.13259 32917 ft 476 kts 75°
2026-04-27 01:20 36.09692 135.21058 32915 ft 476 kts 74°
2026-04-27 01:20 36.11687 135.28799 32922 ft 474 kts 75°
2026-04-27 01:21 36.13643 135.36578 32922 ft 473 kts 75°
2026-04-27 01:21 36.15615 135.44366 32923 ft 474 kts 74°
2026-04-27 01:22 36.17613 135.52156 32921 ft 475 kts 74°
2026-04-27 01:22 36.19616 135.59946 32914 ft 475 kts 75°
2026-04-27 01:23 36.21565 135.67713 32914 ft 475 kts 75°
2026-04-27 01:23 36.23510 135.75529 32912 ft 474 kts 75°
2026-04-27 01:24 36.25460 135.83318 32910 ft 472 kts 75°
2026-04-27 01:24 36.27409 135.91085 32909 ft 472 kts 75°
2026-04-27 01:25 36.29360 135.98858 32910 ft 473 kts 75°
2026-04-27 01:25 36.31305 136.06622 32907 ft 470 kts 75°
2026-04-27 01:26 36.33214 136.14378 32903 ft 470 kts 75°
2026-04-27 01:26 36.35107 136.22166 32908 ft 472 kts 75°
2026-04-27 01:27 36.37034 136.29934 32909 ft 469 kts 75°
2026-04-27 01:27 36.38953 136.37648 32911 ft 467 kts 75°
2026-04-27 01:28 36.41446 136.45103 32917 ft 471 kts 63°
2026-04-27 01:28 36.44627 136.52168 32926 ft 472 kts 63°
2026-04-27 01:29 36.47804 136.59284 32892 ft 469 kts 64°
2026-04-27 01:29 36.50861 136.66377 32898 ft 464 kts 65°
2026-04-27 01:30 36.53891 136.73495 32904 ft 468 kts 65°
2026-04-27 01:30 36.56947 136.80657 32906 ft 470 kts 65°
2026-04-27 01:31 36.60020 136.87836 32910 ft 470 kts 65°
2026-04-27 01:31 36.63085 136.94986 32903 ft 466 kts 65°
2026-04-27 01:32 36.66094 137.02105 32910 ft 464 kts 66°
2026-04-27 01:32 36.69093 137.09260 32914 ft 467 kts 66°
2026-04-27 01:33 36.72126 137.16408 32909 ft 465 kts 67°
2026-04-27 01:33 36.75104 137.23471 32908 ft 462 kts 67°
2026-04-27 01:34 36.78087 137.30567 32913 ft 462 kts 67°
2026-04-27 01:34 36.81093 137.37670 32921 ft 463 kts 68°
2026-04-27 01:35 36.84081 137.44787 32908 ft 462 kts 69°
2026-04-27 01:35 36.87019 137.51865 32906 ft 457 kts 69°
2026-04-27 01:36 36.89952 137.58923 32906 ft 458 kts 69°
2026-04-27 01:36 36.92891 137.65995 32916 ft 461 kts 69°
2026-04-27 01:37 36.95851 137.73102 32882 ft 461 kts 69°
2026-04-27 01:37 36.98816 137.80206 32891 ft 460 kts 69°
2026-04-27 01:38 37.01773 137.87305 32910 ft 459 kts 69°
2026-04-27 01:38 37.04204 137.93206 32916 ft 458 kts 69°
2026-04-27 01:39 37.07116 138.00318 32906 ft 459 kts 69°
2026-04-27 01:39 37.10032 138.07441 32912 ft 460 kts 69°
2026-04-27 01:40 37.12960 138.14576 32916 ft 461 kts 69°
2026-04-27 01:40 37.15903 138.21733 32913 ft 462 kts 69°
2026-04-27 01:41 37.18839 138.28886 32919 ft 461 kts 69°
2026-04-27 01:41 37.21759 138.36035 32919 ft 459 kts 70°
2026-04-27 01:42 37.24615 138.43199 32918 ft 459 kts 70°
2026-04-27 01:42 37.27518 138.50382 32923 ft 463 kts 69°
2026-04-27 01:43 37.30458 138.57532 32912 ft 464 kts 69°
2026-04-27 01:43 37.33413 138.64727 32905 ft 462 kts 70°
2026-04-27 01:44 37.36288 138.71961 32916 ft 464 kts 70°
2026-04-27 01:44 37.39177 138.79237 32912 ft 466 kts 70°
2026-04-27 01:45 37.42100 138.86520 32909 ft 467 kts 70°
2026-04-27 01:45 37.45035 138.93801 32908 ft 465 kts 70°
2026-04-27 01:46 37.47950 139.01051 32908 ft 464 kts 70°
2026-04-27 01:46 37.50854 139.08311 32892 ft 465 kts 70°
2026-04-27 01:47 37.53777 139.15613 32889 ft 468 kts 72°
2026-04-27 01:47 37.56686 139.22972 32895 ft 469 kts 71°
2026-04-27 01:48 37.59557 139.30253 32887 ft 466 kts 71°
2026-04-27 01:48 37.62463 139.37599 32633 ft 473 kts 72°
2026-04-27 01:48 37.63925 139.41362 32087 ft 479 kts 71°
2026-04-27 01:49 37.65398 139.45125 31441 ft 477 kts 71°
2026-04-27 01:49 37.66870 139.48866 30708 ft 475 kts 70°
2026-04-27 01:49 37.68335 139.52591 29930 ft 474 kts 69°
2026-04-27 01:49 37.69785 139.56279 29038 ft 473 kts 68°
2026-04-27 01:50 37.71245 139.59989 28228 ft 470 kts 68°
2026-04-27 01:50 37.72693 139.63678 27463 ft 468 kts 68°
2026-04-27 01:50 37.74133 139.67346 26702 ft 465 kts 68°
2026-04-27 01:50 37.75564 139.70998 25960 ft 462 kts 68°
2026-04-27 01:51 37.76705 139.74757 25229 ft 455 kts 78°
2026-04-27 01:51 37.77496 139.78607 24491 ft 451 kts 80°
2026-04-27 01:51 37.78186 139.82473 23770 ft 451 kts 80°
2026-04-27 01:51 37.78851 139.86249 22994 ft 450 kts 80°
2026-04-27 01:52 37.79543 139.90101 22185 ft 448 kts 80°
2026-04-27 01:52 37.80256 139.93926 21417 ft 446 kts 80°
2026-04-27 01:52 37.80979 139.97676 20668 ft 431 kts 79°
2026-04-27 01:52 37.81681 140.01291 19956 ft 416 kts 80°
2026-04-27 01:53 37.82378 140.04780 19277 ft 403 kts 81°
2026-04-27 01:53 37.83058 140.08161 18594 ft 391 kts 81°
2026-04-27 01:53 37.83707 140.11442 17927 ft 378 kts 82°
2026-04-27 01:53 37.84327 140.14626 17244 ft 367 kts 82°
2026-04-27 01:54 37.84919 140.17721 16616 ft 360 kts 82°
2026-04-27 01:54 37.85508 140.20816 16045 ft 364 kts 82°
2026-04-27 01:54 37.86097 140.23947 15488 ft 366 kts 82°
2026-04-27 01:54 37.86674 140.27033 14910 ft 364 kts 82°
2026-04-27 01:55 37.87254 140.30135 14325 ft 362 kts 82°
2026-04-27 01:55 37.87830 140.33230 13694 ft 360 kts 82°
2026-04-27 01:55 37.88396 140.36291 13105 ft 355 kts 82°
2026-04-27 01:55 37.88983 140.39308 12545 ft 350 kts 81°
2026-04-27 01:56 37.90131 140.45223 11445 ft 340 kts 80°
2026-04-27 01:56 37.90683 140.48078 11186 ft 329 kts 80°
2026-04-27 01:56 37.91204 140.50902 11074 ft 330 kts 81°
2026-04-27 01:57 37.91704 140.53743 11028 ft 333 kts 81°
2026-04-27 01:57 37.92204 140.56616 10998 ft 334 kts 81°
2026-04-27 01:57 37.92710 140.59493 10991 ft 335 kts 81°
2026-04-27 01:57 37.93218 140.62384 10984 ft 336 kts 80°
2026-04-27 01:58 37.93728 140.65272 10982 ft 336 kts 81°
2026-04-27 01:58 37.94236 140.68139 10971 ft 333 kts 80°
2026-04-27 01:58 37.94745 140.71003 10972 ft 334 kts 80°
2026-04-27 01:58 37.95254 140.73873 10973 ft 333 kts 80°
2026-04-27 01:59 37.95765 140.76743 10973 ft 334 kts 80°
2026-04-27 01:59 37.96275 140.79614 10973 ft 334 kts 80°
2026-04-27 01:59 37.96784 140.82484 10973 ft 333 kts 80°
2026-04-27 01:59 37.97283 140.85300 10752 ft 320 kts 80°
2026-04-27 02:00 37.97749 140.87922 10539 ft 298 kts 80°
2026-04-27 02:00 37.98190 140.90409 10268 ft 281 kts 79°
2026-04-27 02:00 37.98824 140.92701 9863 ft 274 kts 64°
2026-04-27 02:00 37.99746 140.94793 9299 ft 271 kts 61°
2026-04-27 02:01 38.00704 140.96828 8778 ft 266 kts 59°
2026-04-27 02:01 38.01649 140.98828 8214 ft 263 kts 60°
2026-04-27 02:01 38.02581 141.00797 7709 ft 258 kts 59°
2026-04-27 02:01 38.03496 141.02739 7104 ft 258 kts 58°
2026-04-27 02:02 38.04417 141.04702 6498 ft 260 kts 58°
2026-04-27 02:02 38.05333 141.06663 6007 ft 256 kts 58°
2026-04-27 02:02 38.06235 141.08603 5481 ft 254 kts 58°
2026-04-27 02:02 38.07122 141.10500 5224 ft 248 kts 54°
2026-04-27 02:03 38.08289 141.12120 5103 ft 251 kts 35°
2026-04-27 02:03 38.09815 141.13161 5131 ft 244 kts 16°
2026-04-27 02:03 38.11475 141.13509 4619 ft 248 kts 358°
2026-04-27 02:03 38.13185 141.13147 4368 ft 253 kts 342°
2026-04-27 02:04 38.14708 141.12014 3742 ft 259 kts 314°
2026-04-27 02:04 38.15602 141.10038 3123 ft 263 kts 284°
2026-04-27 02:04 38.15720 141.07718 2533 ft 265 kts 267°
2026-04-27 02:04 38.15565 141.05444 2230 ft 252 kts 265°
2026-04-27 02:05 38.15359 141.03306 2105 ft 239 kts 263°
2026-04-27 02:05 38.15143 141.01264 2072 ft 229 kts 263°
2026-04-27 02:05 38.14913 140.99368 1999 ft 203 kts 263°
2026-04-27 02:05 38.14696 140.97682 2007 ft 185 kts 264°
2026-04-27 02:06 38.14513 140.96215 2207 ft 159 kts 263°
2026-04-27 02:06 38.14353 140.94793 2108 ft 168 kts 263°
2026-04-27 02:06 38.14179 140.93368 1781 ft 165 kts 264°
2026-04-27 02:06 38.13992 140.91933 1487 ft 158 kts 262°
2026-04-27 02:07 38.13817 140.90577 1331 ft 161 kts 264°
2026-04-27 02:07 38.13606 140.89023 1574 ft 197 kts 261°
2026-04-27 02:07 38.13355 140.87196 1990 ft 227 kts 261°
2026-04-27 02:07 38.13058 140.85055 2146 ft 268 kts 261°
2026-04-27 02:08 38.12706 140.82539 2061 ft 297 kts 261°